| time (UTC) | temp F | wind direction | speed knots | gust knots | rain 1hr in | rain 24hr in | rain mn in | humidity % | barometer mb |
| 20260507003704 | 59 | 227 | 0.9 | 6.1 | 0.00 | 0.00 | 0.00 | 74 | 1020.4 |
| 20260507003205 | 59 | 207 | 1.7 | 7.8 | 0.00 | 0.00 | 0.00 | 74 | 1020.4 |
| 20260507000703 | 58 | 231 | 1.7 | 8.7 | 0.00 | 0.00 | 0.00 | 75 | 1020.5 |
| 20260506233704 | 59 | 267 | 3.5 | 10.4 | 0.00 | 0.00 | 0.00 | 74 | 1020.3 |
| 20260506233205 | 59 | 208 | 1.7 | 10.4 | 0.00 | 0.00 | 0.00 | 74 | 1020.5 |
| 20260506230703 | 58 | 107 | 0.9 | 5.2 | 0.00 | 0.00 | 0.00 | 75 | 1020.6 |
| 20260506230204 | 58 | 217 | 2.6 | 8.7 | 0.00 | 0.00 | 0.00 | 75 | 1020.5 |
| 20260506223705 | 58 | 179 | 2.6 | 6.1 | 0.00 | 0.00 | 0.00 | 74 | 1020.6 |
| 20260506220704 | 58 | 207 | 2.6 | 7.8 | 0.00 | 0.00 | 0.00 | 76 | 1020.8 |
| 20260506220204 | 57 | 230 | 2.6 | 7.8 | 0.00 | 0.00 | 0.00 | 76 | 1020.8 |
| 20260506213705 | 57 | 184 | 1.7 | 4.3 | 0.00 | 0.00 | 0.00 | 76 | 1020.8 |
| 20260506213204 | 57 | 180 | 1.7 | 7.0 | 0.00 | 0.00 | 0.00 | 77 | 1020.8 |
| 20260506210703 | 57 | 217 | 1.7 | 8.7 | 0.00 | 0.00 | 0.00 | 77 | 1020.8 |
| 20260506210204 | 57 | 191 | 2.6 | 8.7 | 0.00 | 0.00 | 0.00 | 77 | 1020.8 |
| 20260506203704 | 57 | 191 | 1.7 | 2.6 | 0.00 | 0.00 | 0.00 | 79 | 1020.7 |
| 20260506203204 | 57 | 210 | 1.7 | 7.0 | 0.00 | 0.00 | 0.00 | 78 | 1020.7 |
| 20260506200704 | 56 | 249 | 0.9 | 4.3 | 0.00 | 0.00 | 0.00 | 80 | 1020.6 |
| 20260506200204 | 56 | 287 | 0.9 | 6.1 | 0.00 | 0.00 | 0.00 | 80 | 1020.6 |
| 20260506193204 | 56 | 263 | 0.9 | 6.1 | 0.00 | 0.00 | 0.00 | 83 | 1020.5 |
| 20260506190705 | 56 | 193 | 1.7 | 2.6 | 0.00 | 0.00 | 0.00 | 84 | 1020.5 |
| 20260506190204 | 56 | 222 | 0.9 | 4.3 | 0.00 | 0.00 | 0.00 | 84 | 1020.5 |
| 20260506183704 | 56 | 220 | 0.9 | 2.6 | 0.00 | 0.00 | 0.00 | 86 | 1020.4 |
| 20260506183203 | 55 | 306 | 0.9 | 7.0 | 0.00 | 0.00 | 0.00 | 86 | 1020.4 |
| 20260506180203 | 55 | 224 | 0.9 | 4.3 | 0.00 | 0.00 | 0.00 | 87 | 1020.1 |
| 20260506173704 | 55 | 257 | 1.7 | 2.6 | 0.00 | 0.00 | 0.00 | 88 | 1020.3 |
| 20260506170704 | 54 | 194 | 1.7 | 2.6 | 0.00 | 0.00 | 0.00 | 91 | 1020.2 |
| 20260506170205 | 54 | 248 | 0.0 | 4.3 | 0.00 | 0.00 | 0.00 | 92 | 1020.1 |
| 20260506163704 | 54 | 292 | 0.9 | 4.3 | 0.00 | 0.00 | 0.00 | 92 | 1019.9 |
| 20260506163204 | 54 | 181 | 0.9 | 2.6 | 0.00 | 0.00 | 0.00 | 92 | 1019.6 |
| 20260506160704 | 53 | 299 | 0.9 | 2.6 | 0.00 | 0.00 | 0.00 | 92 | 1019.7 |
| 20260506160204 | 54 | 190 | 0.9 | 2.6 | 0.00 | 0.00 | 0.00 | 92 | 1019.7 |
| 20260506153704 | 54 | 269 | 0.9 | 2.6 | 0.00 | 0.00 | 0.00 | 92 | 1020.0 |
| 20260506150704 | 54 | 225 | 0.0 | 2.6 | 0.00 | 0.00 | 0.00 | 92 | 1019.6 |
| 20260506150204 | 54 | 283 | 1.7 | 7.0 | 0.00 | 0.00 | 0.00 | 91 | 1019.6 |
| 20260506143704 | 54 | 264 | 0.0 | 1.7 | 0.00 | 0.00 | 0.00 | 91 | 1019.5 |
| 20260506143204 | 54 | 267 | 1.7 | 2.6 | 0.00 | 0.00 | 0.00 | 91 | 1019.6 |
| 20260506140703 | 55 | 144 | 1.7 | 5.2 | 0.00 | 0.00 | 0.00 | 90 | 1019.4 |
| 20260506140204 | 55 | 199 | 0.9 | 4.3 | 0.00 | 0.00 | 0.00 | 91 | 1019.5 |
| 20260506133704 | 55 | 225 | 0.9 | 2.6 | 0.00 | 0.00 | 0.00 | 89 | 1019.3 |
| 20260506133205 | 55 | 208 | 0.9 | 4.3 | 0.00 | 0.00 | 0.00 | 88 | 1019.2 |
| 20260506130704 | 55 | 180 | 0.9 | 1.7 | 0.00 | 0.00 | 0.00 | 88 | 1019.0 |
| 20260506123704 | 55 | 165 | 0.0 | 2.6 | 0.00 | 0.00 | 0.00 | 88 | 1018.7 |
| 20260506123204 | 55 | 179 | 0.0 | 0.0 | 0.00 | 0.00 | 0.00 | 88 | 1018.7 |
| 20260506120704 | 54 | 179 | 0.0 | 1.7 | 0.00 | 0.00 | 0.00 | 88 | 1018.7 |
| 20260506120204 | 55 | 270 | 0.0 | 4.3 | 0.00 | 0.00 | 0.00 | 88 | 1018.6 |
| 20260506113704 | 55 | 154 | 0.9 | 2.6 | 0.00 | 0.00 | 0.00 | 86 | 1018.5 |
| 20260506113203 | 55 | 218 | 0.9 | 2.6 | 0.00 | 0.00 | 0.00 | 85 | 1018.5 |
| 20260506110704 | 55 | 215 | 0.0 | 2.6 | 0.00 | 0.00 | 0.00 | 85 | 1018.4 |
| 20260506103204 | 55 | 231 | 0.9 | 5.2 | 0.00 | 0.00 | 0.00 | 84 | 1018.0 |
| 20260506100704 | 55 | 236 | 1.7 | 5.2 | 0.00 | 0.00 | 0.00 | 84 | 1017.9 |
| 20260506100205 | 55 | 190 | 1.7 | 8.7 | 0.00 | 0.00 | 0.00 | 83 | 1017.8 |
| 20260506093704 | 56 | 203 | 2.6 | 7.0 | 0.00 | 0.00 | 0.00 | 83 | 1017.6 |
| 20260506093203 | 56 | 219 | 2.6 | 8.7 | 0.00 | 0.00 | 0.00 | 82 | 1017.6 |
| 20260506090703 | 57 | 171 | 0.9 | 2.6 | 0.00 | 0.00 | 0.00 | 83 | 1017.4 |
| 20260506083704 | 56 | 178 | 1.7 | 2.6 | 0.00 | 0.00 | 0.00 | 82 | 1017.1 |
| 20260506080704 | 57 | 222 | 1.7 | 4.3 | 0.00 | 0.00 | 0.00 | 82 | 1017.1 |
| 20260506080205 | 57 | 190 | 2.6 | 5.2 | 0.00 | 0.00 | 0.00 | 82 | 1017.1 |
| 20260506073205 | 57 | 161 | 1.7 | 5.2 | 0.00 | 0.00 | 0.00 | 82 | 1016.9 |
| 20260506070703 | 57 | 176 | 0.9 | 4.3 | 0.00 | 0.00 | 0.00 | 82 | 1016.7 |
| 20260506070205 | 57 | 170 | 0.9 | 4.3 | 0.00 | 0.00 | 0.00 | 82 | 1016.7 |
| 20260506060704 | 59 | 226 | 1.7 | 4.3 | 0.00 | 0.00 | 0.00 | 80 | 1016.0 |
| 20260506060203 | 59 | 212 | 0.9 | 5.2 | 0.00 | 0.00 | 0.00 | 79 | 1016.0 |
| 20260506050703 | 61 | 196 | 0.9 | 2.6 | 0.00 | 0.00 | 0.00 | 78 | 1015.7 |
| 20260506050204 | 61 | 198 | 0.9 | 2.6 | 0.00 | 0.00 | 0.00 | 78 | 1015.6 |
| 20260506043704 | 61 | 199 | 0.9 | 1.7 | 0.00 | 0.00 | 0.00 | 77 | 1015.5 |
| 20260506043203 | 61 | 199 | 0.9 | 2.6 | 0.00 | 0.00 | 0.00 | 77 | 1015.5 |
| 20260506040703 | 62 | 199 | 0.9 | 2.6 | 0.00 | 0.00 | 0.00 | 76 | 1015.4 |
| 20260506040204 | 62 | 199 | 0.9 | 2.6 | 0.00 | 0.00 | 0.00 | 76 | 1015.4 |
| 20260506033704 | 63 | 231 | 0.0 | 0.0 | 0.00 | 0.00 | 0.00 | 74 | 1015.2 |
| 20260506033204 | 63 | 231 | 0.0 | 4.3 | 0.00 | 0.00 | 0.00 | 73 | 1015.1 |
| 20260506030704 | 64 | 138 | 0.9 | 2.6 | 0.00 | 0.00 | 0.00 | 70 | 1014.9 |
| 20260506030205 | 64 | 163 | 1.7 | 5.2 | 0.00 | 0.00 | 0.00 | 70 | 1014.9 |
| 20260506023703 | 66 | 211 | 1.7 | 2.6 | 0.00 | 0.00 | 0.00 | 68 | 1014.8 |
| 20260506020704 | 67 | 216 | 1.7 | 6.1 | 0.00 | 0.00 | 0.00 | 67 | 1014.9 |
| 20260506020204 | 67 | 258 | 2.6 | 7.0 | 0.00 | 0.00 | 0.00 | 65 | 1014.9 |
| 20260506013704 | 68 | 182 | 1.7 | 4.3 | 0.00 | 0.00 | 0.00 | 63 | 1014.7 |
| 20260506013205 | 69 | 251 | 1.7 | 7.8 | 0.00 | 0.00 | 0.00 | 63 | 1014.7 |